Temp
12 11 11 10 10 9 9 9 9 9 8 9 9 8 8 8 8 8 8 8 7 6 6 6 6 6 6 5 5 6 6 5 6 6 6 6 7 6 6 6 5 5 5
11 10 10 10 10 9 9 9 9 9 9 9 9 9 8 8 8 7 7 7 7 6 6 6 6 6 5 5 5 5 5 5 5 6 6 6 6 6 5 5 5 5 5
11 10 10 10 9 9 9 9 9 9 9 9 9 8 8 7 7 7 7 7 6 6 6 6 5 5 5 5 5 5 4 5 5 6 6 5 5 5 5 5 5 5 5
11 10 10 10 9 9 9 9 8 8 8 8 8 8 8 8 7 7 6 6 6 6 6 5 5 5 5 5 4 4 5 5 5 5 5 4 4 4 4 4 4 4 5
10 10 9 9 9 9 9 9 8 8 8 8 7 7 7 7 7 6 6 6 6 6 5 5 5 5 4 4 4 5 5 4 4 4 4 3 3 3 3 3 4 4 4
11 10 9 9 8 9 8 8 8 7 7 7 7 7 7 6 6 6 6 6 5 6 6 6 5 5 5 4 4 4 4 3 2 2 2 2 2 1 2 2 3 3 4
11 9 9 9 9 9 8 8 8 7 8 8 7 7 6 6 6 6 6 6 6 6 6 5 5 4 3 4 4 4 3 2 1 2 1 2 1 1 1 1 2 2 3
10 9 9 8 7 7 7 7 8 8 7 7 7 6 6 6 5 6 6 5 5 5 4 3 3 3 3 3 3 2 2 1 1 1 1 1 1 1 1 1 1 2 2
8 7 7 7 7 7 7 7 7 7 6 6 6 6 5 5 5 4 5 5 4 3 3 2 2 2 2 1 1 0 0 0 0 0 1 1 0 0 -0 0 0 0 2
7 7 6 7 7 7 7 6 6 6 6 5 5 5 5 5 5 4 4 4 3 2 2 2 1 0 -0 -0 0 0 -0 -0 -0 0 0 -0 -0 -0 -0 -0 0 -0 1
7 7 7 7 7 7 6 6 6 6 6 6 5 5 5 4 4 3 2 2 2 2 2 2 1 1 1 -0 0 -0 -0 -0 -0 -1 -0 -0 -0 0 0 1 0 -0 1
7 7 7 7 7 6 6 6 6 6 6 6 5 4 3 3 3 2 1 1 1 1 1 0 -0 0 1 0 -0 -0 -0 -1 -0 -0 -0 -0 0 -0 -0 -1 -0 0 1
7 7 7 7 7 6 6 6 6 6 5 5 4 3 3 2 2 1 1 1 0 -0 -1 -0 -0 0 0 0 -0 -0 -0 -0 -0 -0 0 0 -1 -1 -1 -0 1 1 2
8 7 7 6 6 6 6 6 5 5 5 4 4 3 2 1 1 1 1 -0 -1 -0 0 0 -1 -0 -0 -0 -0 -0 -1 -0 0 0 0 -0 0 -1 -1 0 2 2 3
7 6 6 6 6 5 5 5 5 5 4 4 3 2 1 1 0 0 0 -2 -2 -1 -2 -1 -0 -0 -0 -1 -1 -1 -1 -0 -0 -0 -0 -0 -0 0 -1 -0 2 2 3
6 6 6 6 5 5 5 5 5 4 4 3 2 1 1 0 -1 -2 -2 -3 -2 -1 -2 -1 -1 -1 -1 -1 -1 -1 -0 -0 -0 -0 -0 -1 -0 0 -0 -0 1 3 3
6 5 5 5 5 4 4 4 4 3 3 2 1 1 0 -1 -1 -2 -4 -4 -2 -2 -1 -1 -1 -1 -1 -0 -1 -0 -0 -0 -0 -0 -0 -0 -1 -1 0 -0 -0 2 3
5 5 5 5 4 4 4 3 3 2 2 1 0 -0 -0 -1 -1 -2 -3 -2 -2 -2 -2 -1 -1 -1 -1 -1 -0 -0 -1 -1 -1 -1 -0 -0 -1 -0 -1 -0 -1 -0 1
5 5 4 4 4 3 3 3 3 2 2 1 -0 -0 -0 -1 -1 -2 -3 -3 -2 -2 -1 -1 -1 -1 -1 -1 -1 -1 -0 0 0 -0 -0 -0 -0 -1 -0 -0 -1 -1 -1
5 4 4 4 4 4 3 3 2 2 2 1 1 0 -0 -1 -2 -2 -2 -2 -2 -2 -2 -2 -1 -1 -1 -0 -1 -1 0 0 0 0 0 0 -0 -1 -1 -1 -1 -1 -1
4 4 4 3 3 3 3 2 2 2 2 1 1 1 0 -0 -1 -1 -2 -2 -2 -1 -1 -2 -2 -1 -1 -1 -0 -0 -0 0 0 0 0 0 0 -0 -1 -1 -1 -1 -1
4 3 3 3 3 3 2 2 2 2 2 2 1 0 -0 -1 -1 -1 -1 -1 -1 -1 -1 -1 -1 -0 -0 -0 -0 -0 0 0 -0 -0 0 0 0 0 -0 -1 -1 -1 -0
3 3 3 2 2 2 2 2 2 2 2 1 1 0 -0 -1 -1 -1 -1 -1 -1 -1 -1 -1 -1 -1 -1 -0 0 0 0 0 1 1 1 1 1 0 0 0 0 -0 -1
3 3 2 2 2 2 1 1 2 1 1 1 1 0 -0 -0 -1 -1 -1 -1 -1 -1 -1 -1 -1 -0 -0 -0 -0 0 0 1 1 1 1 1 1 0 0 -0 -0 -0 -1
2 2 2 1 1 1 1 1 1 1 1 1 1 0 -0 -0 -1 -1 -1 -1 -1 -1 -1 -1 -1 -1 -1 -1 -1 -0 -0 0 0 0 1 1 1 1 1 0 0 0 -0
2 2 2 1 1 1 1 1 1 1 1 0 0 -0 -0 -1 -1 -1 -1 -1 -1 -1 -1 -1 -1 -1 -1 -1 -0 -0 -0 -0 -0 -0 -0 -0 0 0 1 1 0 0 0
Height
3204 3203 3203 3204 3203 3201 3200 3198 3195 3191 3188 3184 3183 3180 3179 3177 3175 3172 3169 3166 3163 3159 3156 3150 3145 3141 3134 3129 3125 3120 3114 3110 3098 3093 3095 3096 3093 3091 3092 3090 3088 3088 3088
3199 3199 3199 3198 3196 3196 3194 3190 3187 3185 3182 3178 3175 3172 3171 3169 3167 3164 3159 3156 3152 3148 3144 3139 3134 3129 3124 3120 3114 3110 3105 3101 3094 3084 3082 3083 3082 3082 3078 3078 3077 3076 3076
3195 3194 3193 3193 3192 3190 3187 3184 3181 3178 3175 3171 3169 3165 3162 3160 3158 3154 3148 3145 3141 3137 3133 3128 3122 3117 3112 3108 3104 3098 3094 3089 3085 3078 3070 3070 3070 3070 3069 3065 3066 3065 3064
3190 3189 3188 3187 3186 3184 3182 3179 3177 3173 3169 3166 3162 3158 3155 3152 3147 3142 3137 3134 3130 3127 3123 3117 3112 3106 3101 3096 3091 3087 3083 3077 3073 3068 3062 3057 3058 3059 3058 3054 3052 3054 3054
3183 3183 3182 3181 3180 3178 3176 3174 3171 3169 3165 3160 3155 3150 3146 3142 3137 3132 3129 3126 3121 3116 3112 3107 3102 3096 3091 3086 3081 3075 3069 3064 3060 3055 3051 3048 3047 3048 3047 3045 3041 3040 3042
3179 3178 3177 3176 3174 3172 3171 3168 3164 3160 3155 3150 3146 3142 3138 3134 3130 3126 3120 3115 3111 3105 3101 3097 3092 3088 3084 3079 3073 3066 3058 3051 3048 3044 3041 3038 3036 3037 3036 3033 3031 3029 3027
3174 3173 3172 3172 3170 3167 3164 3160 3155 3151 3147 3143 3138 3133 3130 3125 3120 3116 3111 3106 3101 3097 3093 3089 3084 3079 3074 3066 3061 3054 3049 3045 3042 3038 3032 3028 3025 3027 3025 3024 3021 3017 3016
3171 3171 3169 3167 3164 3162 3158 3153 3148 3143 3138 3134 3130 3125 3121 3116 3112 3107 3102 3099 3095 3092 3086 3080 3072 3066 3062 3054 3048 3043 3041 3039 3034 3032 3028 3026 3022 3020 3017 3013 3009 3006 3002
3165 3165 3163 3161 3158 3154 3149 3145 3140 3136 3132 3127 3122 3117 3113 3109 3104 3100 3096 3091 3086 3081 3076 3070 3063 3057 3052 3047 3042 3038 3036 3031 3029 3026 3023 3019 3017 3014 3011 3003 2999 2991 2986
3160 3158 3156 3153 3149 3144 3140 3136 3131 3127 3122 3118 3115 3111 3106 3102 3097 3092 3086 3080 3074 3069 3066 3061 3056 3049 3045 3042 3038 3033 3029 3027 3024 3020 3016 3013 3010 3008 3004 2996 2987 2977 2970
3154 3151 3148 3144 3139 3135 3130 3127 3122 3119 3116 3112 3109 3104 3099 3093 3088 3082 3077 3071 3065 3061 3058 3054 3050 3046 3041 3037 3033 3028 3025 3022 3020 3017 3014 3010 3006 3000 2991 2981 2972 2960 2950
3146 3143 3139 3135 3132 3129 3125 3122 3119 3114 3109 3105 3100 3095 3089 3084 3080 3077 3072 3067 3062 3056 3052 3048 3044 3041 3034 3029 3026 3024 3022 3019 3017 3014 3010 3005 2998 2989 2978 2964 2950 2941 2936
3141 3137 3134 3130 3126 3123 3119 3115 3111 3107 3103 3099 3094 3091 3087 3082 3077 3072 3068 3063 3059 3053 3049 3045 3040 3036 3030 3025 3021 3020 3019 3017 3014 3011 3005 2999 2990 2980 2966 2950 2936 2929 2927
3134 3130 3126 3123 3121 3117 3113 3110 3107 3103 3099 3094 3090 3086 3081 3076 3072 3067 3063 3058 3055 3050 3046 3040 3036 3032 3027 3022 3019 3019 3018 3014 3011 3006 3000 2993 2984 2974 2960 2943 2931 2926 2923
3128 3124 3122 3119 3116 3112 3110 3107 3103 3099 3095 3090 3085 3080 3076 3071 3066 3061 3055 3051 3048 3046 3041 3037 3032 3028 3025 3020 3018 3018 3016 3012 3008 3002 2996 2989 2981 2970 2958 2940 2927 2923 2919
3123 3121 3119 3117 3114 3111 3107 3103 3100 3095 3090 3085 3079 3075 3069 3063 3058 3053 3049 3048 3045 3042 3039 3033 3029 3023 3020 3019 3018 3017 3014 3010 3005 2999 2993 2986 2979 2969 2956 2942 2926 2922 2916
3119 3117 3116 3114 3110 3107 3104 3100 3096 3090 3085 3080 3075 3070 3065 3061 3055 3051 3047 3043 3041 3038 3035 3030 3026 3022 3020 3020 3017 3015 3012 3007 3002 2997 2991 2985 2978 2970 2959 2946 2932 2923 2918
3116 3114 3111 3109 3107 3104 3100 3097 3092 3088 3083 3078 3073 3069 3064 3059 3053 3049 3044 3041 3038 3033 3031 3026 3022 3021 3019 3018 3016 3013 3010 3005 3000 2995 2990 2985 2978 2971 2962 2950 2939 2929 2921
3112 3109 3107 3105 3103 3099 3096 3093 3088 3084 3080 3075 3071 3066 3061 3055 3050 3045 3042 3039 3036 3033 3029 3026 3022 3020 3019 3016 3014 3011 3006 3002 2996 2992 2988 2983 2977 2973 2966 2957 2947 2937 2928
3108 3106 3103 3101 3098 3096 3093 3089 3085 3081 3077 3072 3068 3065 3060 3055 3048 3044 3042 3039 3037 3034 3029 3025 3021 3020 3019 3016 3013 3009 3004 3000 2995 2991 2986 2982 2977 2972 2967 2961 2953 2943 2935
3105 3103 3100 3096 3095 3093 3090 3087 3083 3079 3075 3070 3067 3063 3059 3055 3050 3045 3041 3039 3037 3034 3030 3025 3021 3019 3017 3015 3011 3007 3003 2998 2994 2990 2985 2981 2977 2972 2969 2964 2959 2953 2946
3101 3099 3096 3094 3092 3090 3087 3084 3080 3077 3074 3070 3067 3063 3059 3055 3051 3047 3044 3041 3038 3034 3030 3026 3023 3020 3018 3015 3011 3007 3003 2999 2995 2990 2986 2981 2977 2972 2968 2966 2962 2958 2952
3096 3094 3092 3090 3088 3086 3084 3081 3079 3076 3073 3070 3066 3063 3060 3057 3053 3049 3045 3042 3039 3036 3032 3028 3025 3022 3018 3015 3011 3008 3004 3000 2995 2991 2987 2982 2978 2973 2970 2966 2963 2960 2957
3091 3090 3089 3087 3085 3083 3082 3080 3077 3074 3072 3070 3066 3064 3061 3058 3055 3051 3048 3045 3041 3038 3034 3031 3028 3024 3020 3016 3012 3009 3005 3000 2996 2991 2987 2983 2979 2975 2972 2968 2964 2962 2960
3088 3086 3084 3083 3081 3079 3078 3077 3075 3073 3071 3069 3066 3064 3062 3059 3056 3053 3049 3046 3043 3039 3036 3032 3029 3025 3021 3017 3013 3009 3005 3000 2996 2992 2989 2985 2981 2977 2973 2970 2966 2963 2960
3083 3081 3080 3078 3076 3075 3075 3074 3072 3071 3070 3067 3065 3063 3061 3059 3057 3054 3051 3048 3044 3041 3037 3033 3029 3025 3021 3018 3013 3009 3004 3000 2997 2993 2989 2986 2983 2979 2975 2971 2967 2964 2961
Wind_Speed
22 19 20 23 24 25 30 32 32 33 34 34 38 42 44 37 36 44 46 47 48 50 52 53 56 54 50 48 48 48 47 47 53 54 49 46 45 43 38 37 38 36 35
24 22 22 26 25 28 32 30 30 32 32 31 37 44 47 46 45 47 44 44 46 50 54 57 55 49 49 49 47 45 44 45 49 54 52 47 45 41 42 37 36 37 37
28 24 26 26 24 31 31 34 33 32 34 33 34 37 38 41 44 44 46 49 51 53 54 51 49 49 49 47 44 45 45 47 49 51 54 48 43 40 39 40 37 35 37
23 26 26 27 29 30 32 30 30 30 31 34 33 34 37 42 46 49 50 51 50 49 46 45 46 48 48 46 47 47 49 48 47 49 50 49 43 40 38 40 41 38 36
21 22 24 26 27 31 31 27 27 28 31 34 37 40 43 45 47 47 47 45 43 43 43 44 46 46 45 46 48 48 50 52 49 48 48 46 43 41 38 37 41 41 38
20 22 24 25 25 24 25 27 31 34 37 40 41 42 41 40 42 42 42 41 42 44 45 44 43 44 43 42 43 45 45 42 39 41 42 41 39 37 35 34 36 38 40
17 19 19 21 23 25 28 32 35 38 40 40 38 36 36 37 37 38 39 41 42 42 42 43 43 40 40 42 41 38 30 29 30 33 35 28 25 26 30 31 37 41 42
13 14 15 19 23 27 31 34 35 34 33 32 31 32 34 35 36 37 37 38 39 38 37 34 37 40 39 40 37 28 29 22 23 28 28 28 28 28 31 36 40 43 44
11 14 17 21 27 32 32 29 28 27 26 26 28 30 30 32 33 35 36 36 35 33 32 33 36 36 35 31 28 27 24 20 23 26 29 28 24 29 33 37 38 44 49
14 18 24 30 33 33 29 27 25 25 26 26 27 29 31 31 33 33 33 34 35 35 33 32 32 32 31 28 27 29 22 21 22 26 23 22 22 29 33 41 47 54 58
20 25 30 33 33 30 28 27 27 27 28 29 29 30 31 32 30 30 32 35 37 35 32 31 25 26 31 27 24 24 23 22 13 22 22 21 28 31 43 46 48 55 55
26 30 33 31 30 27 25 25 25 26 28 29 29 29 31 32 31 31 31 32 32 33 32 27 28 29 28 27 29 20 16 15 18 22 22 25 35 40 50 46 45 43 35
28 30 29 27 24 23 24 26 27 27 29 30 29 28 27 29 29 29 30 29 27 29 25 24 27 29 20 17 13 13 15 15 20 23 24 26 34 46 46 36 32 19 21
28 26 24 22 22 23 25 26 27 28 29 29 28 27 27 28 27 27 27 25 24 23 19 27 24 23 23 20 9 11 12 17 20 21 24 28 31 45 51 37 22 16 16
24 21 20 21 23 23 23 25 27 28 27 28 28 27 27 27 29 27 27 21 23 19 24 20 22 23 13 7 10 11 14 17 19 24 25 30 40 42 57 43 19 17 19
19 18 19 19 19 20 22 25 24 26 27 26 25 26 29 32 31 30 27 17 19 18 23 27 18 22 13 11 9 13 15 17 20 24 26 37 37 43 51 49 29 16 19
17 17 17 17 19 21 22 21 23 26 26 25 26 27 28 29 27 28 22 22 10 19 22 19 14 7 6 9 13 17 19 22 24 25 30 32 35 40 43 51 42 21 16
15 16 17 18 19 20 19 20 21 20 20 21 23 24 25 28 25 29 19 18 14 20 19 25 11 9 10 9 17 20 22 27 26 24 27 29 32 36 40 48 50 48 35
13 15 17 17 18 18 19 20 21 21 21 21 22 25 27 28 28 27 17 18 15 19 21 21 17 11 10 16 17 23 27 29 25 23 24 28 29 29 33 37 45 46 47
13 14 16 17 17 17 18 20 20 21 23 23 23 22 23 25 22 12 15 13 17 19 25 21 14 16 15 20 22 25 25 24 23 23 24 25 24 24 26 29 36 43 45
12 13 14 15 15 15 16 17 18 20 21 22 22 22 20 20 23 18 15 15 18 16 22 21 18 18 19 20 20 22 22 22 22 22 23 22 22 21 21 24 27 31 36
11 12 13 14 14 13 14 14 16 18 18 19 20 20 20 21 19 17 17 18 17 18 19 19 18 17 17 17 18 19 21 22 21 21 21 22 22 21 21 19 20 23 27
12 12 13 13 12 12 12 13 14 15 15 16 17 18 18 18 18 18 19 19 18 19 19 20 20 20 20 20 21 21 22 22 22 23 23 23 23 23 22 21 19 18 19
11 12 12 12 11 10 11 11 12 13 12 12 13 15 15 15 16 17 17 17 18 19 20 20 19 20 20 21 22 22 22 22 23 24 25 26 25 24 24 23 21 19 15
12 13 12 11 10 10 9 10 10 11 10 10 10 11 12 14 15 16 17 18 19 19 20 21 21 22 22 23 23 23 23 23 23 22 22 23 24 25 24 23 21 21 19
12 12 12 12 11 10 9 9 9 9 9 8 8 9 10 12 13 14 15 16 17 18 19 20 21 22 23 23 22 23 24 23 23 24 23 22 21 20 21 22 21 20 19
Wind_Direction
278 298 287 287 270 292 307 308 299 295 293 283 267 267 274 284 279 277 282 282 283 287 294 296 300 302 303 302 300 298 295 294 294 294 294 293 292 293 290 284 283 278 273
272 283 291 277 288 283 298 297 289 291 298 290 277 271 272 280 283 290 287 286 289 290 293 298 299 300 300 300 299 295 294 294 293 295 295 293 290 289 290 288 282 280 278
269 277 288 288 284 291 290 294 291 291 291 289 288 290 287 280 285 288 290 290 291 293 296 297 300 300 299 299 296 294 295 295 293 292 293 292 290 290 286 286 284 278 275
274 277 281 285 288 282 294 291 283 287 288 286 290 293 290 288 288 290 290 293 297 296 297 298 298 299 299 299 297 296 296 294 293 292 292 292 291 289 287 284 280 277 276
269 274 280 285 286 289 289 285 285 287 291 294 295 293 291 290 290 291 293 294 294 296 296 298 300 299 297 297 298 299 296 293 293 291 287 288 290 289 289 284 280 279 276
271 274 277 285 286 283 285 290 295 298 299 297 294 293 291 290 289 292 294 295 296 298 300 299 297 293 292 297 297 297 297 297 295 293 292 292 291 287 283 283 282 282 279
273 279 280 281 287 293 297 300 299 296 293 293 291 288 290 293 294 293 294 297 298 297 295 292 290 295 301 302 303 304 303 301 301 303 292 282 296 299 289 284 280 280 279
265 273 284 290 293 297 299 298 295 293 292 291 289 289 290 291 293 294 296 294 292 291 295 302 301 303 308 309 312 316 303 305 303 302 303 301 302 303 297 292 288 286 282
277 275 287 294 300 304 303 299 297 294 291 290 292 294 296 295 294 292 293 297 300 304 310 311 306 308 312 317 315 303 294 288 300 301 300 298 298 304 302 297 295 290 287
294 301 304 307 310 309 307 307 305 307 307 306 304 302 301 300 300 303 305 309 312 316 317 315 315 315 314 306 306 303 319 313 318 318 310 331 315 309 299 288 288 282 287
304 307 309 313 312 313 313 315 317 315 312 310 309 308 306 307 311 314 316 316 315 317 320 316 317 320 307 302 301 308 312 308 311 327 327 316 323 310 315 310 294 290 288
308 312 315 315 315 315 314 313 313 313 316 319 320 317 314 314 315 314 312 311 313 315 318 318 313 320 308 293 285 312 318 340 333 331 324 322 329 330 325 325 304 299 292
311 314 316 318 319 318 319 320 323 324 323 322 321 317 311 306 307 307 306 305 307 306 312 312 320 317 305 287 294 323 342 334 334 338 341 337 333 334 346 341 313 301 301
316 317 319 320 321 324 326 326 324 325 324 321 319 318 316 315 314 311 307 301 300 310 291 300 309 307 302 300 320 347 333 335 338 341 339 342 338 345 352 360 318 307 309
317 318 320 325 325 325 324 324 325 324 323 322 326 328 328 327 325 322 315 315 317 335 333 326 312 310 311 346 331 341 335 335 341 338 336 354 353 348 352 16 331 329 319
319 320 322 321 319 321 325 326 326 326 327 331 335 336 334 336 333 333 328 315 315 338 322 314 323 323 287 343 342 335 334 338 341 343 353 347 355 352 356 3 25 16 338
316 315 315 320 323 327 328 328 330 332 335 339 340 339 338 339 340 336 329 326 303 313 312 323 327 343 21 0 357 342 342 339 339 340 343 345 353 354 360 4 22 22 1
309 312 318 323 324 325 328 334 335 338 339 334 335 339 338 336 335 333 319 318 295 309 328 323 316 358 3 7 344 337 333 335 332 335 338 344 346 353 0 5 10 23 28
305 312 316 320 325 328 334 337 341 343 344 341 341 339 338 338 331 337 343 320 325 327 344 326 325 331 350 344 331 335 333 334 336 335 334 336 337 347 358 8 6 12 27
305 310 314 320 328 331 333 339 344 347 348 347 348 344 345 347 343 351 355 348 335 348 341 332 329 318 315 321 327 333 336 338 341 342 342 344 342 344 356 6 10 9 18
302 308 312 320 321 326 332 339 343 351 352 355 356 356 357 354 11 14 10 6 349 355 0 11 0 345 338 333 345 343 346 351 350 350 349 348 353 352 359 4 14 15 15
297 306 314 313 317 324 329 337 345 353 357 358 1 5 6 13 12 8 9 7 6 12 16 16 18 13 11 9 6 4 5 7 6 5 0 357 358 3 0 2 11 19 19
301 314 312 311 315 321 328 336 344 353 357 360 6 10 12 14 17 19 20 18 17 17 18 17 13 12 11 9 10 10 8 6 7 9 9 8 9 7 6 7 7 10 20
309 310 307 307 311 320 325 332 343 347 350 358 7 9 11 15 16 18 20 18 17 17 16 14 12 11 12 10 10 8 7 7 7 6 6 6 6 6 7 7 7 9 12
307 309 310 310 311 319 321 328 336 337 340 352 4 8 9 12 15 15 16 14 12 10 8 8 7 6 5 3 2 1 1 0 1 2 2 0 359 358 358 1 2 3 4
306 309 307 306 309 312 313 322 328 328 329 339 355 2 4 5 7 7 7 5 3 4 2 1 1 359 358 357 356 355 356 356 356 356 357 357 357 355 353 352 352 354 355